Location: Asbacherhof
(48.8543°N, 10.7903°E)
Time: 16:31:01
(UTC+00:00)

Cosmos 614 Rocket - Pass Details

Date: 26 May 2022
Orbit: 732 x 764 km, 74.1° (Epoch: 06 July)

Event Time Altitude Azimuth Distance (km) Brightness Sun altitude
Rises 01:54:53 0° 333° (NNW) 3,216 7.6 -11.4°
Reaches altitude 10° 01:57:17 10° 328° (NNW) 2,291 6.7 -11.1°
Maximum altitude 02:02:18 51° 254° (WSW) 954 4.2 -10.6°
Drops below altitude 10° 02:07:19 10° 179° (S) 2,290 6.0 -10.1°
Enters shadow 02:09:16 - 175° (S) 3,033 6.7 -9.9°
